Time,TemperatureF,DewpointF,PressureIn,WindDirection,WindDirectionDegrees,WindSpeedMPH,WindSpeedGustMPH,Humidity,HourlyPrecipIn,Conditions,Clouds,dailyrainin,SoftwareType,DateUTC
2013-01-11 00:04:00,33.7,29.8,30.17,SE,135,0.0,0.0,86,0.00,,,0.00,WUHU216HW,2013-01-11 08:04:00,
2013-01-11 00:09:00,33.7,29.5,30.18,SSE,158,0.0,0.2,85,0.00,,,0.00,WUHU216HW,2013-01-11 08:09:00,
2013-01-11 00:14:00,33.5,29.3,30.18,SSW,203,0.0,0.2,85,0.00,,,0.00,WUHU216HW,2013-01-11 08:14:00,
2013-01-11 00:19:00,33.5,29.3,30.18,SSW,203,0.0,0.0,85,0.00,,,0.00,WUHU216HW,2013-01-11 08:19:00,
2013-01-11 00:24:00,33.1,29.1,30.18,SW,225,0.0,0.2,85,0.00,,,0.00,WUHU216HW,2013-01-11 08:24:00,
2013-01-11 00:29:00,32.9,28.9,30.18,ESE,113,0.0,0.4,85,0.00,,,0.00,WUHU216HW,2013-01-11 08:29:00,
2013-01-11 00:34:00,32.6,28.5,30.18,ESE,113,0.0,0.4,85,0.00,,,0.00,WUHU216HW,2013-01-11 08:34:00,
2013-01-11 00:39:00,32.2,28.3,30.18,ENE,68,0.2,0.2,85,0.00,,,0.00,WUHU216HW,2013-01-11 08:39:00,
2013-01-11 00:44:00,32.0,28.1,30.18,SE,135,0.0,0.2,85,0.00,,,0.00,WUHU216HW,2013-01-11 08:44:00,
2013-01-11 00:49:00,32.0,28.4,30.19,ESE,113,0.0,0.2,86,0.00,,,0.00,WUHU216HW,2013-01-11 08:49:00,
2013-01-11 00:54:00,32.0,28.4,30.18,ENE,68,0.0,0.2,86,0.00,,,0.00,WUHU216HW,2013-01-11 08:54:00,
2013-01-11 00:59:00,32.0,28.4,30.18,ESE,113,0.0,0.2,86,0.00,,,0.00,WUHU216HW,2013-01-11 08:59:00,
2013-01-11 01:04:00,32.0,28.6,30.18,NE,45,0.0,0.4,87,0.00,,,0.00,WUHU216HW,2013-01-11 09:04:00,
2013-01-11 01:08:00,32.0,29.0,30.18,NNW,338,0.0,0.4,88,0.00,,,0.00,WUHU216HW,2013-01-11 09:08:00,
2013-01-11 01:13:00,32.2,29.1,30.18,ESE,113,0.0,0.0,88,0.00,,,0.00,WUHU216HW,2013-01-11 09:13:00,
2013-01-11 01:18:00,32.2,29.1,30.19,West,270,0.0,0.2,88,0.00,,,0.00,WUHU216HW,2013-01-11 09:18:00,
2013-01-11 01:23:00,32.4,29.3,30.19,SSE,158,0.0,0.2,88,0.00,,,0.00,WUHU216HW,2013-01-11 09:23:00,
2013-01-11 01:28:00,32.4,29.0,30.19,SSE,158,0.0,0.0,87,0.00,,,0.00,WUHU216HW,2013-01-11 09:28:00,
2013-01-11 01:33:00,32.2,28.8,30.19,SSE,158,0.0,0.0,87,0.00,,,0.00,WUHU216HW,2013-01-11 09:33:00,
2013-01-11 01:38:00,32.0,28.4,30.19,SSE,158,0.0,0.0,86,0.00,,,0.00,WUHU216HW,2013-01-11 09:38:00,
2013-01-11 01:43:00,32.0,28.4,30.19,SSE,158,0.0,0.0,86,0.00,,,0.00,WUHU216HW,2013-01-11 09:43:00,
2013-01-11 01:48:00,31.7,28.0,30.19,SSE,158,0.0,0.0,86,0.00,,,0.00,WUHU216HW,2013-01-11 09:48:00,
2013-01-11 01:53:00,31.7,28.0,30.19,SSE,158,0.0,0.0,86,0.00,,,0.00,WUHU216HW,2013-01-11 09:53:00,
2013-01-11 01:58:00,31.3,27.6,30.19,SSE,158,0.0,0.0,86,0.00,,,0.00,WUHU216HW,2013-01-11 09:58:00,
2013-01-11 02:03:00,31.3,27.6,30.19,SSE,158,0.0,0.0,86,0.00,,,0.00,WUHU216HW,2013-01-11 10:03:00,
2013-01-11 02:08:00,31.1,27.5,30.19,SSE,158,0.0,0.0,86,0.00,,,0.00,WUHU216HW,2013-01-11 10:08:00,
2013-01-11 02:13:00,30.8,27.1,30.19,SSE,158,0.0,0.0,86,0.00,,,0.00,WUHU216HW,2013-01-11 10:13:00,
2013-01-11 02:18:00,30.6,26.9,30.19,SW,225,0.0,0.0,86,0.00,,,0.00,WUHU216HW,2013-01-11 10:18:00,
2013-01-11 02:23:00,30.6,27.2,30.19,SW,225,0.0,0.0,87,0.00,,,0.00,WUHU216HW,2013-01-11 10:23:00,
2013-01-11 02:28:00,30.4,27.0,30.19,SW,225,0.0,0.0,87,0.00,,,0.00,WUHU216HW,2013-01-11 10:28:00,
2013-01-11 02:33:00,30.2,26.8,30.19,SW,225,0.0,0.0,87,0.00,,,0.00,WUHU216HW,2013-01-11 10:33:00,
2013-01-11 02:38:00,30.1,26.6,30.19,SW,225,0.0,0.0,87,0.00,,,0.00,WUHU216HW,2013-01-11 10:38:00,
2013-01-11 02:43:00,30.1,26.4,30.18,WSW,248,0.0,0.0,86,0.00,,,0.00,WUHU216HW,2013-01-11 10:43:00,
2013-01-11 02:48:00,30.1,26.4,30.19,WSW,248,0.0,0.0,86,0.00,,,0.00,WUHU216HW,2013-01-11 10:48:00,
2013-01-11 02:53:00,30.1,26.4,30.19,WSW,248,0.0,0.0,86,0.00,,,0.00,WUHU216HW,2013-01-11 10:53:00,
2013-01-11 02:58:00,29.9,26.2,30.19,West,270,0.0,0.0,86,0.00,,,0.00,WUHU216HW,2013-01-11 10:58:00,
2013-01-11 03:03:00,29.7,26.0,30.19,West,270,0.0,0.0,86,0.00,,,0.00,WUHU216HW,2013-01-11 11:03:00,
2013-01-11 03:08:00,29.5,26.1,30.19,North,0,0.0,0.0,87,0.00,,,0.00,WUHU216HW,2013-01-11 11:08:00,
2013-01-11 03:13:00,29.3,25.9,30.19,North,0,0.0,0.0,87,0.00,,,0.00,WUHU216HW,2013-01-11 11:13:00,
2013-01-11 03:18:00,29.3,25.9,30.19,SE,135,0.4,0.4,87,0.00,,,0.00,WUHU216HW,2013-01-11 11:18:00,
2013-01-11 03:23:00,29.3,25.9,30.19,East,90,0.0,0.4,87,0.00,,,0.00,WUHU216HW,2013-01-11 11:23:00,
2013-01-11 03:28:00,29.3,25.9,30.19,East,90,0.0,0.4,87,0.00,,,0.00,WUHU216HW,2013-01-11 11:28:00,
2013-01-11 03:33:00,29.2,25.7,30.19,East,90,0.0,0.0,87,0.00,,,0.00,WUHU216HW,2013-01-11 11:33:00,
2013-01-11 03:38:00,29.2,25.7,30.19,East,90,0.0,0.0,87,0.00,,,0.00,WUHU216HW,2013-01-11 11:38:00,
2013-01-11 03:44:00,29.5,26.1,30.19,SE,135,0.0,0.0,87,0.00,,,0.00,WUHU216HW,2013-01-11 11:44:00,
2013-01-11 03:49:00,29.5,26.1,30.19,SE,135,0.0,0.0,87,0.00,,,0.00,WUHU216HW,2013-01-11 11:49:00,
2013-01-11 03:54:00,29.3,25.9,30.19,SE,135,0.0,0.0,87,0.00,,,0.00,WUHU216HW,2013-01-11 11:54:00,
2013-01-11 03:59:00,29.2,25.7,30.19,ESE,113,0.0,0.4,87,0.00,,,0.00,WUHU216HW,2013-01-11 11:59:00,
2013-01-11 04:04:00,29.3,25.9,30.19,East,90,0.0,0.4,87,0.00,,,0.00,WUHU216HW,2013-01-11 12:04:00,
2013-01-11 04:09:00,29.5,26.1,30.19,ESE,113,0.0,0.2,87,0.00,,,0.00,WUHU216HW,2013-01-11 12:09:00,
2013-01-11 04:14:00,29.7,26.3,30.19,ESE,113,0.0,0.0,87,0.00,,,0.00,WUHU216HW,2013-01-11 12:14:00,
2013-01-11 04:19:00,29.7,26.3,30.19,SE,135,0.0,0.0,87,0.00,,,0.00,WUHU216HW,2013-01-11 12:19:00,
2013-01-11 04:24:00,29.9,26.5,30.19,SE,135,0.0,0.0,87,0.00,,,0.00,WUHU216HW,2013-01-11 12:24:00,
2013-01-11 04:29:00,29.9,26.5,30.19,SE,135,0.0,0.0,87,0.00,,,0.00,WUHU216HW,2013-01-11 12:29:00,
2013-01-11 04:34:00,29.9,26.5,30.20,ESE,113,0.0,0.0,87,0.00,,,0.00,WUHU216HW,2013-01-11 12:34:00,
2013-01-11 04:39:00,29.9,26.5,30.20,ESE,113,0.0,0.0,87,0.00,,,0.00,WUHU216HW,2013-01-11 12:39:00,
2013-01-11 04:44:00,29.9,26.5,30.20,ESE,113,0.0,0.0,87,0.00,,,0.00,WUHU216HW,2013-01-11 12:44:00,
2013-01-11 04:49:00,29.7,26.3,30.20,ESE,113,0.0,0.2,87,0.00,,,0.00,WUHU216HW,2013-01-11 12:49:00,
2013-01-11 04:54:00,29.9,26.5,30.21,East,90,0.0,0.2,87,0.00,,,0.00,WUHU216HW,2013-01-11 12:54:00,
2013-01-11 04:59:00,29.7,26.3,30.21,ENE,68,0.0,0.0,87,0.00,,,0.00,WUHU216HW,2013-01-11 12:59:00,
2013-01-11 05:04:00,29.5,26.1,30.21,East,90,0.0,0.0,87,0.00,,,0.00,WUHU216HW,2013-01-11 13:04:00,
2013-01-11 05:09:00,29.7,26.3,30.21,East,90,0.0,0.0,87,0.00,,,0.00,WUHU216HW,2013-01-11 13:09:00,
2013-01-11 05:14:00,29.5,26.1,30.21,East,90,0.0,0.0,87,0.00,,,0.00,WUHU216HW,2013-01-11 13:14:00,
2013-01-11 05:19:00,29.2,25.7,30.21,ENE,68,0.0,0.0,87,0.00,,,0.00,WUHU216HW,2013-01-11 13:19:00,
2013-01-11 05:24:00,29.2,25.7,30.21,East,90,0.0,0.0,87,0.00,,,0.00,WUHU216HW,2013-01-11 13:24:00,
2013-01-11 05:29:00,29.0,25.6,30.21,East,90,0.0,0.0,87,0.00,,,0.00,WUHU216HW,2013-01-11 13:29:00,
2013-01-11 05:34:00,29.2,26.1,30.21,SE,135,0.0,0.0,88,0.00,,,0.00,WUHU216HW,2013-01-11 13:34:00,
2013-01-11 05:39:00,29.3,25.9,30.21,SE,135,0.0,0.0,87,0.00,,,0.00,WUHU216HW,2013-01-11 13:39:00,
2013-01-11 05:44:00,29.2,25.7,30.21,SE,135,0.0,0.0,87,0.00,,,0.00,WUHU216HW,2013-01-11 13:44:00,
2013-01-11 05:49:00,29.2,25.7,30.21,SE,135,0.0,0.0,87,0.00,,,0.00,WUHU216HW,2013-01-11 13:49:00,
2013-01-11 05:54:00,29.0,25.6,30.21,SSE,158,0.0,0.0,87,0.00,,,0.00,WUHU216HW,2013-01-11 13:54:00,
2013-01-11 05:59:00,28.6,25.2,30.22,SSE,158,0.0,0.0,87,0.00,,,0.00,WUHU216HW,2013-01-11 13:59:00,
2013-01-11 06:04:00,28.4,25.0,30.22,SSE,158,0.0,0.0,87,0.00,,,0.00,WUHU216HW,2013-01-11 14:04:00,
2013-01-11 06:09:00,28.4,25.0,30.23,SSE,158,0.0,0.0,87,0.00,,,0.00,WUHU216HW,2013-01-11 14:09:00,
2013-01-11 06:14:00,28.3,24.8,30.23,SSE,158,0.0,0.0,87,0.00,,,0.00,WUHU216HW,2013-01-11 14:14:00,
2013-01-11 06:19:00,28.3,24.8,30.23,SSE,158,0.0,0.0,87,0.00,,,0.00,WUHU216HW,2013-01-11 14:19:00,
2013-01-11 06:24:00,28.3,24.8,30.23,SSE,158,0.0,0.0,87,0.00,,,0.00,WUHU216HW,2013-01-11 14:24:00,
2013-01-11 06:29:00,28.1,24.7,30.23,SSE,158,0.0,0.0,87,0.00,,,0.00,WUHU216HW,2013-01-11 14:29:00,
2013-01-11 06:34:00,28.1,25.0,30.23,SSE,158,0.0,0.0,88,0.00,,,0.00,WUHU216HW,2013-01-11 14:34:00,
2013-01-11 06:39:00,27.9,24.5,30.23,SE,135,0.0,0.2,87,0.00,,,0.00,WUHU216HW,2013-01-11 14:39:00,
2013-01-11 06:44:00,27.7,24.3,30.23,SE,135,0.0,0.2,87,0.00,,,0.00,WUHU216HW,2013-01-11 14:44:00,
2013-01-11 06:49:00,27.7,24.7,30.24,SE,135,0.0,0.0,88,0.00,,,0.00,WUHU216HW,2013-01-11 14:49:00,
2013-01-11 06:54:00,27.7,24.7,30.24,SE,135,0.0,0.0,88,0.00,,,0.00,WUHU216HW,2013-01-11 14:54:00,
2013-01-11 06:59:00,27.7,24.7,30.24,NNE,23,0.0,0.0,88,0.00,,,0.00,WUHU216HW,2013-01-11 14:59:00,
2013-01-11 07:04:00,27.7,24.7,30.24,North,0,0.0,0.0,88,0.00,,,0.00,WUHU216HW,2013-01-11 15:04:00,
2013-01-11 07:09:00,27.7,24.7,30.24,SE,135,0.0,0.0,88,0.00,,,0.00,WUHU216HW,2013-01-11 15:09:00,
2013-01-11 07:14:00,27.7,24.7,30.24,SE,135,0.0,0.0,88,0.00,,,0.00,WUHU216HW,2013-01-11 15:14:00,
2013-01-11 07:19:00,27.7,24.7,30.24,SE,135,0.0,0.0,88,0.00,,,0.00,WUHU216HW,2013-01-11 15:19:00,
2013-01-11 07:24:00,27.7,24.7,30.25,NE,45,0.0,0.7,88,0.00,,,0.00,WUHU216HW,2013-01-11 15:24:00,
2013-01-11 07:29:00,27.7,24.7,30.25,NE,45,0.0,0.7,88,0.00,,,0.00,WUHU216HW,2013-01-11 15:29:00,
2013-01-11 07:34:00,27.7,24.7,30.25,NE,45,0.0,0.0,88,0.00,,,0.00,WUHU216HW,2013-01-11 15:34:00,
2013-01-11 07:39:00,27.9,24.9,30.25,NE,45,0.0,0.0,88,0.00,,,0.00,WUHU216HW,2013-01-11 15:39:00,
2013-01-11 07:44:00,27.9,24.9,30.25,NE,45,0.0,0.0,88,0.00,,,0.00,WUHU216HW,2013-01-11 15:44:00,
2013-01-11 07:49:00,28.3,25.2,30.25,NW,315,0.0,0.4,88,0.00,,,0.00,WUHU216HW,2013-01-11 15:49:00,
2013-01-11 07:54:00,28.4,25.4,30.26,NNW,338,0.0,0.4,88,0.00,,,0.00,WUHU216HW,2013-01-11 15:54:00,
2013-01-11 07:59:00,28.6,25.6,30.26,NNW,338,0.0,0.4,88,0.00,,,0.00,WUHU216HW,2013-01-11 15:59:00,
2013-01-11 08:04:00,29.0,26.2,30.26,NNW,338,0.0,0.4,89,0.00,,,0.00,WUHU216HW,2013-01-11 16:04:00,
2013-01-11 08:09:00,29.2,26.4,30.26,WNW,293,0.2,0.4,89,0.00,,,0.00,WUHU216HW,2013-01-11 16:09:00,
2013-01-11 08:14:00,29.9,27.4,30.26,WNW,293,0.0,0.4,90,0.00,,,0.00,WUHU216HW,2013-01-11 16:14:00,
2013-01-11 08:19:00,30.4,27.6,30.26,West,270,0.0,0.4,89,0.00,,,0.00,WUHU216HW,2013-01-11 16:19:00,
2013-01-11 08:24:00,31.0,28.4,30.26,West,270,0.0,0.4,90,0.00,,,0.00,WUHU216HW,2013-01-11 16:24:00,
2013-01-11 08:29:00,31.3,28.8,30.26,West,270,0.0,0.0,90,0.00,,,0.00,WUHU216HW,2013-01-11 16:29:00,
2013-01-11 08:34:00,31.9,29.6,30.26,West,270,0.0,0.0,91,0.00,,,0.00,WUHU216HW,2013-01-11 16:34:00,
2013-01-11 08:39:00,32.4,30.1,30.26,West,270,0.0,0.0,91,0.00,,,0.00,WUHU216HW,2013-01-11 16:39:00,
2013-01-11 08:44:00,32.8,30.4,30.26,West,270,0.0,0.0,91,0.00,,,0.00,WUHU216HW,2013-01-11 16:44:00,
2013-01-11 08:49:00,33.3,31.0,30.26,WNW,293,0.0,0.0,91,0.00,,,0.00,WUHU216HW,2013-01-11 16:49:00,
2013-01-11 08:54:00,33.8,31.7,30.26,NW,315,0.9,0.9,92,0.00,,,0.00,WUHU216HW,2013-01-11 16:54:00,
2013-01-11 08:59:00,34.4,32.0,30.26,NW,315,0.0,0.9,91,0.00,,,0.00,WUHU216HW,2013-01-11 16:59:00,
2013-01-11 09:04:00,34.9,32.2,30.26,West,270,0.4,0.9,90,0.00,,,0.00,WUHU216HW,2013-01-11 17:04:00,
2013-01-11 09:09:00,35.3,32.6,30.27,WSW,248,0.0,1.1,90,0.00,,,0.00,WUHU216HW,2013-01-11 17:09:00,
2013-01-11 09:14:00,35.5,32.5,30.26,SW,225,0.0,1.1,89,0.00,,,0.00,WUHU216HW,2013-01-11 17:14:00,
2013-01-11 09:19:00,36.0,33.0,30.26,WSW,248,1.8,1.8,89,0.00,,,0.00,WUHU216HW,2013-01-11 17:19:00,
2013-01-11 09:24:00,36.5,33.3,30.26,WSW,248,0.0,1.8,88,0.00,,,0.00,WUHU216HW,2013-01-11 17:24:00,
2013-01-11 09:29:00,37.1,33.9,30.26,SSW,203,1.3,2.0,88,0.00,,,0.00,WUHU216HW,2013-01-11 17:29:00,
2013-01-11 09:34:00,37.4,34.2,30.26,SSE,158,1.1,2.5,88,0.00,,,0.00,WUHU216HW,2013-01-11 17:34:00,
2013-01-11 09:39:00,37.8,34.2,30.26,SE,135,1.6,2.5,87,0.00,,,0.00,WUHU216HW,2013-01-11 17:39:00,
2013-01-11 09:44:00,38.3,34.7,30.26,SSE,158,0.4,1.8,87,0.00,,,0.00,WUHU216HW,2013-01-11 17:44:00,
2013-01-11 09:49:00,38.5,34.4,30.26,SSE,158,0.4,2.5,85,0.00,,,0.00,WUHU216HW,2013-01-11 17:49:00,
2013-01-11 09:54:00,39.1,34.7,30.26,SSE,158,2.5,2.5,84,0.00,,,0.00,WUHU216HW,2013-01-11 17:54:00,
2013-01-11 09:59:00,39.6,34.6,30.26,SE,135,0.9,2.5,82,0.00,,,0.00,WUHU216HW,2013-01-11 17:59:00,
2013-01-11 10:04:00,40.1,35.1,30.26,South,180,2.5,2.5,82,0.00,,,0.00,WUHU216HW,2013-01-11 18:04:00,
2013-01-11 10:09:00,40.5,35.4,30.26,SW,225,0.4,3.8,82,0.00,,,0.00,WUHU216HW,2013-01-11 18:09:00,
2013-01-11 10:14:00,41.0,35.6,30.26,SSW,203,1.1,3.8,81,0.00,,,0.00,WUHU216HW,2013-01-11 18:14:00,
2013-01-11 10:19:00,41.4,35.3,30.26,ESE,113,2.5,3.1,79,0.00,,,0.00,WUHU216HW,2013-01-11 18:19:00,
2013-01-11 10:24:00,41.8,35.6,30.26,WSW,248,2.5,3.1,79,0.00,,,0.00,WUHU216HW,2013-01-11 18:24:00,
2013-01-11 10:29:00,42.1,35.7,30.25,SW,225,1.1,3.8,78,0.00,,,0.00,WUHU216HW,2013-01-11 18:29:00,
2013-01-11 10:34:00,42.3,36.2,30.25,WSW,248,0.7,3.8,79,0.00,,,0.00,WUHU216HW,2013-01-11 18:34:00,
2013-01-11 10:39:00,42.5,36.1,30.25,SW,225,3.1,4.0,78,0.00,,,0.00,WUHU216HW,2013-01-11 18:39:00,
2013-01-11 10:44:00,42.8,36.5,30.25,SW,225,2.0,4.0,78,0.00,,,0.00,WUHU216HW,2013-01-11 18:44:00,
2013-01-11 10:49:00,43.2,36.8,30.25,SW,225,0.4,3.6,78,0.00,,,0.00,WUHU216HW,2013-01-11 18:49:00,
2013-01-11 10:54:00,43.4,36.3,30.24,South,180,1.1,3.4,76,0.00,,,0.00,WUHU216HW,2013-01-11 18:54:00,
2013-01-11 10:59:00,43.7,36.3,30.25,SSE,158,1.1,3.6,75,0.00,,,0.00,WUHU216HW,2013-01-11 18:59:00,
2013-01-11 11:04:00,44.3,36.5,30.24,ESE,113,2.5,4.3,74,0.00,,,0.00,WUHU216HW,2013-01-11 19:04:00,
2013-01-11 11:08:00,44.3,36.5,30.24,SW,225,2.0,4.3,74,0.00,,,0.00,WUHU216HW,2013-01-11 19:08:00,
2013-01-11 11:14:00,44.6,36.5,30.24,ENE,68,2.5,2.9,73,0.00,,,0.00,WUHU216HW,2013-01-11 19:14:00,
2013-01-11 11:18:00,44.6,36.5,30.23,SSE,158,3.8,3.8,73,0.00,,,0.00,WUHU216HW,2013-01-11 19:18:00,
2013-01-11 11:23:00,45.0,36.6,30.23,SE,135,1.1,3.8,72,0.00,,,0.00,WUHU216HW,2013-01-11 19:23:00,
2013-01-11 11:28:00,45.0,36.6,30.23,ESE,113,1.1,4.3,72,0.00,,,0.00,WUHU216HW,2013-01-11 19:28:00,
2013-01-11 11:33:00,45.4,36.9,30.22,West,270,0.9,4.3,72,0.00,,,0.00,WUHU216HW,2013-01-11 19:33:00,
2013-01-11 11:38:00,45.4,36.9,30.22,SSE,158,2.2,3.8,72,0.00,,,0.00,WUHU216HW,2013-01-11 19:38:00,
2013-01-11 11:43:00,45.4,36.9,30.22,SW,225,1.1,3.6,72,0.00,,,0.00,WUHU216HW,2013-01-11 19:43:00,
2013-01-11 11:49:00,45.5,36.7,30.22,West,270,2.0,3.1,71,0.00,,,0.00,WUHU216HW,2013-01-11 19:49:00,
2013-01-11 11:53:00,45.7,37.3,30.22,SW,225,0.9,3.1,72,0.00,,,0.00,WUHU216HW,2013-01-11 19:53:00,
2013-01-11 11:58:00,45.9,37.1,30.22,SE,135,4.0,4.0,71,0.00,,,0.00,WUHU216HW,2013-01-11 19:58:00,
2013-01-11 12:04:00,46.1,37.3,30.21,West,270,1.1,4.0,71,0.00,,,0.00,WUHU216HW,2013-01-11 20:04:00,
2013-01-11 12:09:00,46.3,37.1,30.21,SSW,203,3.1,3.4,70,0.00,,,0.00,WUHU216HW,2013-01-11 20:09:00,
2013-01-11 12:13:00,46.3,36.7,30.21,SE,135,2.2,3.4,69,0.00,,,0.00,WUHU216HW,2013-01-11 20:13:00,
2013-01-11 12:18:00,46.1,36.1,30.21,SW,225,1.3,3.4,68,0.00,,,0.00,WUHU216HW,2013-01-11 20:18:00,
2013-01-11 12:23:00,46.3,36.7,30.20,WSW,248,2.2,3.4,69,0.00,,,0.00,WUHU216HW,2013-01-11 20:23:00,
2013-01-11 12:28:00,46.4,36.5,30.20,SSE,158,1.1,3.4,68,0.00,,,0.00,WUHU216HW,2013-01-11 20:28:00,
2013-01-11 12:34:00,46.8,36.8,30.19,WSW,248,1.8,2.5,68,0.00,,,0.00,WUHU216HW,2013-01-11 20:34:00,
2013-01-11 12:38:00,47.0,36.2,30.19,NW,315,2.2,4.0,66,0.00,,,0.00,WUHU216HW,2013-01-11 20:38:00,
2013-01-11 12:44:00,46.4,35.6,30.19,NW,315,2.2,4.0,66,0.00,,,0.00,WUHU216HW,2013-01-11 20:44:00,
2013-01-11 12:49:00,46.4,36.1,30.19,SSW,203,1.8,2.2,67,0.00,,,0.00,WUHU216HW,2013-01-11 20:49:00,
2013-01-11 12:54:00,47.0,37.0,30.19,SSW,203,0.9,3.1,68,0.00,,,0.00,WUHU216HW,2013-01-11 20:54:00,
2013-01-11 12:59:00,47.3,37.7,30.19,SE,135,1.6,3.1,69,0.00,,,0.00,WUHU216HW,2013-01-11 20:59:00,
2013-01-11 13:04:00,47.9,37.8,30.18,NW,315,0.9,3.4,68,0.00,,,0.00,WUHU216HW,2013-01-11 21:04:00,
2013-01-11 13:09:00,47.9,37.5,30.18,WNW,293,3.6,4.0,67,0.00,,,0.00,WUHU216HW,2013-01-11 21:09:00,
2013-01-11 13:14:00,47.9,37.0,30.18,NW,315,1.6,4.0,66,0.00,,,0.00,WUHU216HW,2013-01-11 21:14:00,
2013-01-11 13:19:00,47.3,36.2,30.18,NNW,338,0.2,4.0,65,0.00,,,0.00,WUHU216HW,2013-01-11 21:19:00,
2013-01-11 13:24:00,47.2,35.6,30.18,WNW,293,2.9,2.9,64,0.00,,,0.00,WUHU216HW,2013-01-11 21:24:00,
2013-01-11 13:29:00,47.0,35.4,30.18,NE,45,0.7,3.4,64,0.00,,,0.00,WUHU216HW,2013-01-11 21:29:00,
2013-01-11 13:34:00,47.2,36.0,30.18,West,270,1.8,5.4,65,0.00,,,0.00,WUHU216HW,2013-01-11 21:34:00,
2013-01-11 13:39:00,47.5,37.1,30.18,West,270,2.0,5.4,67,0.00,,,0.00,WUHU216HW,2013-01-11 21:39:00,
2013-01-11 13:44:00,47.7,36.5,30.18,NW,315,1.8,4.0,65,0.00,,,0.00,WUHU216HW,2013-01-11 21:44:00,
2013-01-11 13:49:00,47.9,37.0,30.18,West,270,2.0,3.4,66,0.00,,,0.00,WUHU216HW,2013-01-11 21:49:00,
2013-01-11 13:54:00,48.2,37.7,30.18,NW,315,0.9,4.0,67,0.00,,,0.00,WUHU216HW,2013-01-11 21:54:00,
2013-01-11 13:59:00,48.2,36.3,30.18,NW,315,2.0,4.0,63,0.00,,,0.00,WUHU216HW,2013-01-11 21:59:00,
2013-01-11 14:05:00,47.9,35.9,30.18,SSE,158,2.2,4.0,63,0.00,,,0.00,WUHU216HW,2013-01-11 22:05:00,
2013-01-11 14:10:00,48.1,36.1,30.18,SSW,203,2.5,4.0,63,0.00,,,0.00,WUHU216HW,2013-01-11 22:10:00,
2013-01-11 14:15:00,48.4,36.8,30.18,NW,315,3.4,4.0,64,0.00,,,0.00,WUHU216HW,2013-01-11 22:15:00,
2013-01-11 14:20:00,48.4,36.8,30.18,WNW,293,0.7,4.0,64,0.00,,,0.00,WUHU216HW,2013-01-11 22:20:00,
2013-01-11 14:25:00,48.6,36.5,30.18,West,270,1.6,3.4,63,0.00,,,0.00,WUHU216HW,2013-01-11 22:25:00,
2013-01-11 14:30:00,48.6,36.2,30.17,NW,315,0.9,3.4,62,0.00,,,0.00,WUHU216HW,2013-01-11 22:30:00,
2013-01-11 14:35:00,48.8,36.0,30.17,West,270,1.6,4.7,61,0.00,,,0.00,WUHU216HW,2013-01-11 22:35:00,
2013-01-11 14:40:00,48.6,34.5,30.17,WSW,248,2.2,7.6,58,0.00,,,0.00,WUHU216HW,2013-01-11 22:40:00,
2013-01-11 14:45:00,48.4,35.6,30.17,West,270,7.4,7.6,61,0.00,,,0.00,WUHU216HW,2013-01-11 22:45:00,
2013-01-11 14:50:00,48.2,34.7,30.17,WNW,293,4.0,7.4,59,0.00,,,0.00,WUHU216HW,2013-01-11 22:50:00,
2013-01-11 14:55:00,48.2,34.2,30.17,WNW,293,3.6,6.0,58,0.00,,,0.00,WUHU216HW,2013-01-11 22:55:00,
2013-01-11 15:00:00,48.1,34.0,30.17,NNW,338,4.3,6.0,58,0.00,,,0.00,WUHU216HW,2013-01-11 23:00:00,
2013-01-11 15:05:00,47.7,34.1,30.17,NW,315,3.4,6.0,59,0.00,,,0.00,WUHU216HW,2013-01-11 23:05:00,
2013-01-11 15:10:00,47.5,33.9,30.17,West,270,3.4,6.0,59,0.00,,,0.00,WUHU216HW,2013-01-11 23:10:00,
2013-01-11 15:15:00,47.5,34.7,30.16,West,270,5.1,5.4,61,0.00,,,0.00,WUHU216HW,2013-01-11 23:15:00,
2013-01-11 15:20:00,47.3,34.2,30.16,WNW,293,2.7,5.4,60,0.00,,,0.00,WUHU216HW,2013-01-11 23:20:00,
2013-01-11 15:25:00,47.2,34.4,30.17,West,270,4.3,4.9,61,0.00,,,0.00,WUHU216HW,2013-01-11 23:25:00,
2013-01-11 15:30:00,47.5,34.7,30.16,NW,315,3.1,4.3,61,0.00,,,0.00,WUHU216HW,2013-01-11 23:30:00,
2013-01-11 15:35:00,47.5,34.7,30.16,NW,315,3.1,4.9,61,0.00,,,0.00,WUHU216HW,2013-01-11 23:35:00,
2013-01-11 15:40:00,47.2,33.6,30.16,NW,315,1.8,4.9,59,0.00,,,0.00,WUHU216HW,2013-01-11 23:40:00,
2013-01-11 15:45:00,47.0,33.4,30.16,WNW,293,2.9,4.7,59,0.00,,,0.00,WUHU216HW,2013-01-11 23:45:00,
2013-01-11 15:50:00,47.0,34.2,30.16,WNW,293,4.7,4.7,61,0.00,,,0.00,WUHU216HW,2013-01-11 23:50:00,
2013-01-11 15:55:00,46.8,32.8,30.16,NNW,338,1.3,5.1,58,0.00,,,0.00,WUHU216HW,2013-01-11 23:55:00,
2013-01-11 16:00:00,46.4,32.9,30.16,NNW,338,0.4,5.1,59,0.00,,,0.00,WUHU216HW,2013-01-12 00:00:00,
2013-01-11 16:05:00,46.3,32.7,30.16,NW,315,1.3,3.6,59,0.00,,,0.00,WUHU216HW,2013-01-12 00:05:00,
2013-01-11 16:10:00,46.3,32.2,30.16,NNW,338,0.7,3.6,58,0.00,,,0.00,WUHU216HW,2013-01-12 00:10:00,
2013-01-11 16:15:00,46.1,33.4,30.16,NNW,338,0.9,3.6,61,0.00,,,0.00,WUHU216HW,2013-01-12 00:15:00,
2013-01-11 16:20:00,45.7,32.7,30.16,NW,315,2.0,2.7,60,0.00,,,0.00,WUHU216HW,2013-01-12 00:20:00,
2013-01-11 16:25:00,45.5,32.5,30.16,NNW,338,1.6,5.1,60,0.00,,,0.00,WUHU216HW,2013-01-12 00:25:00,
2013-01-11 16:30:00,45.5,33.3,30.16,NW,315,2.5,5.1,62,0.00,,,0.00,WUHU216HW,2013-01-12 00:30:00,
2013-01-11 16:35:00,45.0,32.8,30.16,NW,315,1.1,3.6,62,0.00,,,0.00,WUHU216HW,2013-01-12 00:35:00,
2013-01-11 16:40:00,44.6,32.9,30.16,NW,315,2.9,3.4,63,0.00,,,0.00,WUHU216HW,2013-01-12 00:40:00,
2013-01-11 16:46:00,44.5,32.7,30.16,WNW,293,0.9,3.4,63,0.00,,,0.00,WUHU216HW,2013-01-12 00:46:00,
2013-01-11 16:51:00,44.3,32.9,30.16,NW,315,1.1,2.2,64,0.00,,,0.00,WUHU216HW,2013-01-12 00:51:00,
2013-01-11 16:56:00,43.6,32.6,30.16,NW,315,0.0,1.1,65,0.00,,,0.00,WUHU216HW,2013-01-12 00:56:00,
2013-01-11 17:01:00,43.0,32.4,30.16,NW,315,0.0,0.9,66,0.00,,,0.00,WUHU216HW,2013-01-12 01:01:00,
2013-01-11 17:06:00,42.7,32.5,30.16,NW,315,0.0,0.0,67,0.00,,,0.00,WUHU216HW,2013-01-12 01:06:00,
2013-01-11 17:11:00,42.1,32.3,30.16,NW,315,0.0,0.0,68,0.00,,,0.00,WUHU216HW,2013-01-12 01:11:00,
2013-01-11 17:16:00,41.8,31.6,30.16,NNW,338,0.0,0.0,67,0.00,,,0.00,WUHU216HW,2013-01-12 01:16:00,
2013-01-11 17:21:00,41.4,32.1,30.16,NE,45,0.0,0.0,69,0.00,,,0.00,WUHU216HW,2013-01-12 01:21:00,
2013-01-11 17:26:00,40.9,32.2,30.16,ENE,68,0.0,0.0,71,0.00,,,0.00,WUHU216HW,2013-01-12 01:26:00,
2013-01-11 17:31:00,40.7,32.1,30.15,ENE,68,0.0,0.0,71,0.00,,,0.00,WUHU216HW,2013-01-12 01:31:00,
2013-01-11 17:36:00,40.7,32.1,30.16,ENE,68,0.0,0.0,71,0.00,,,0.00,WUHU216HW,2013-01-12 01:36:00,
2013-01-11 17:41:00,40.3,31.7,30.15,ENE,68,0.0,0.0,71,0.00,,,0.00,WUHU216HW,2013-01-12 01:41:00,
2013-01-11 17:46:00,40.1,31.8,30.15,ENE,68,0.0,0.0,72,0.00,,,0.00,WUHU216HW,2013-01-12 01:46:00,
2013-01-11 17:51:00,39.8,31.8,30.15,ENE,68,0.0,0.0,73,0.00,,,0.00,WUHU216HW,2013-01-12 01:51:00,
2013-01-11 17:56:00,39.6,31.6,30.15,ENE,68,0.0,0.0,73,0.00,,,0.00,WUHU216HW,2013-01-12 01:56:00,
2013-01-11 18:01:00,39.4,31.4,30.15,ENE,68,0.0,0.0,73,0.00,,,0.00,WUHU216HW,2013-01-12 02:01:00,
2013-01-11 18:06:00,38.9,31.2,30.15,ENE,68,0.0,0.0,74,0.00,,,0.00,WUHU216HW,2013-01-12 02:06:00,
2013-01-11 18:11:00,38.7,31.2,30.15,ENE,68,0.0,0.0,74,0.00,,,0.00,WUHU216HW,2013-01-12 02:11:00,
2013-01-11 18:16:00,38.5,31.2,30.15,ENE,68,0.0,0.0,75,0.00,,,0.00,WUHU216HW,2013-01-12 02:16:00,
2013-01-11 18:21:00,38.2,31.0,30.15,ENE,68,0.0,0.0,75,0.00,,,0.00,WUHU216HW,2013-01-12 02:21:00,
2013-01-11 18:26:00,37.8,30.9,30.15,ENE,68,0.0,0.0,76,0.00,,,0.00,WUHU216HW,2013-01-12 02:26:00,
2013-01-11 18:31:00,37.8,31.2,30.15,ENE,68,0.0,0.0,77,0.00,,,0.00,WUHU216HW,2013-01-12 02:31:00,
2013-01-11 18:36:00,37.6,30.8,30.15,ENE,68,0.0,0.0,76,0.00,,,0.00,WUHU216HW,2013-01-12 02:36:00,
2013-01-11 18:41:00,37.6,30.8,30.15,ENE,68,0.0,0.0,76,0.00,,,0.00,WUHU216HW,2013-01-12 02:41:00,
2013-01-11 18:46:00,37.3,30.4,30.15,ENE,68,0.0,0.0,76,0.00,,,0.00,WUHU216HW,2013-01-12 02:46:00,
2013-01-11 18:51:00,37.1,30.5,30.15,ENE,68,0.0,0.0,77,0.00,,,0.00,WUHU216HW,2013-01-12 02:51:00,
2013-01-11 18:56:00,36.9,30.7,30.15,ENE,68,0.0,0.0,78,0.00,,,0.00,WUHU216HW,2013-01-12 02:56:00,
2013-01-11 19:01:00,37.1,30.9,30.15,ENE,68,0.0,0.0,78,0.00,,,0.00,WUHU216HW,2013-01-12 03:01:00,
2013-01-11 19:06:00,37.1,30.9,30.15,ENE,68,0.0,0.0,78,0.00,,,0.00,WUHU216HW,2013-01-12 03:06:00,
2013-01-11 19:11:00,37.3,31.3,30.15,SE,135,0.4,0.9,79,0.00,,,0.00,WUHU216HW,2013-01-12 03:11:00,
2013-01-11 19:16:00,37.3,31.3,30.15,SSW,203,0.0,0.9,79,0.00,,,0.00,WUHU216HW,2013-01-12 03:16:00,
2013-01-11 19:21:00,37.1,31.5,30.15,SSW,203,0.0,0.4,80,0.00,,,0.00,WUHU216HW,2013-01-12 03:21:00,
2013-01-11 19:26:00,37.1,31.5,30.15,SE,135,0.0,0.0,80,0.00,,,0.00,WUHU216HW,2013-01-12 03:26:00,
2013-01-11 19:31:00,37.3,31.7,30.15,SE,135,0.0,0.0,80,0.00,,,0.00,WUHU216HW,2013-01-12 03:31:00,
2013-01-11 19:36:00,37.3,31.7,30.15,SE,135,0.0,0.0,80,0.00,,,0.00,WUHU216HW,2013-01-12 03:36:00,
2013-01-11 19:41:00,37.3,32.0,30.15,SSW,203,0.0,0.0,81,0.00,,,0.00,WUHU216HW,2013-01-12 03:41:00,
2013-01-11 19:46:00,37.3,32.0,30.15,SSE,158,0.0,0.0,81,0.00,,,0.00,WUHU216HW,2013-01-12 03:46:00,
2013-01-11 19:51:00,37.3,32.0,30.14,SSE,158,0.0,0.0,81,0.00,,,0.00,WUHU216HW,2013-01-12 03:51:00,
2013-01-11 19:56:00,37.3,32.2,30.14,SE,135,0.0,0.0,82,0.00,,,0.00,WUHU216HW,2013-01-12 03:56:00,
2013-01-11 20:01:00,37.4,32.4,30.14,ESE,113,0.0,0.2,82,0.00,,,0.00,WUHU216HW,2013-01-12 04:01:00,
2013-01-11 20:06:00,37.6,32.6,30.14,ESE,113,0.0,0.2,82,0.00,,,0.00,WUHU216HW,2013-01-12 04:06:00,
2013-01-11 20:11:00,37.8,32.8,30.14,ESE,113,0.0,0.2,82,0.00,,,0.00,WUHU216HW,2013-01-12 04:11:00,
2013-01-11 20:16:00,37.8,32.5,30.14,ESE,113,0.0,0.2,81,0.00,,,0.00,WUHU216HW,2013-01-12 04:16:00,
2013-01-11 20:21:00,38.0,32.7,30.14,SE,135,0.0,0.0,81,0.00,,,0.00,WUHU216HW,2013-01-12 04:21:00,
2013-01-11 20:26:00,38.0,32.9,30.14,SE,135,0.0,0.0,82,0.00,,,0.00,WUHU216HW,2013-01-12 04:26:00,
2013-01-11 20:32:00,38.2,33.1,30.14,SSW,203,0.4,0.9,82,0.00,,,0.00,WUHU216HW,2013-01-12 04:32:00,
2013-01-11 20:37:00,38.0,33.3,30.14,SE,135,0.0,0.9,83,0.00,,,0.00,WUHU216HW,2013-01-12 04:37:00,
2013-01-11 20:42:00,37.8,33.4,30.14,ESE,113,0.0,0.7,84,0.00,,,0.00,WUHU216HW,2013-01-12 04:42:00,
2013-01-11 20:47:00,38.0,33.3,30.15,ESE,113,0.0,0.0,83,0.00,,,0.00,WUHU216HW,2013-01-12 04:47:00,
2013-01-11 20:52:00,38.2,33.8,30.15,SE,135,0.0,0.0,84,0.00,,,0.00,WUHU216HW,2013-01-12 04:52:00,
2013-01-11 20:57:00,38.5,34.1,30.15,WNW,293,0.0,0.0,84,0.00,,,0.00,WUHU216HW,2013-01-12 04:57:00,
2013-01-11 21:02:00,38.7,34.0,30.15,SE,135,0.0,0.2,83,0.00,,,0.00,WUHU216HW,2013-01-12 05:02:00,
2013-01-11 21:07:00,38.9,33.8,30.15,SSE,158,0.4,0.7,82,0.00,,,0.00,WUHU216HW,2013-01-12 05:07:00,
2013-01-11 21:12:00,39.1,34.0,30.15,SE,135,0.0,0.7,82,0.00,,,0.00,WUHU216HW,2013-01-12 05:12:00,
2013-01-11 21:17:00,39.2,34.2,30.15,SE,135,0.0,0.4,82,0.00,,,0.00,WUHU216HW,2013-01-12 05:17:00,
2013-01-11 21:22:00,39.1,34.0,30.15,ESE,113,0.0,0.0,82,0.00,,,0.00,WUHU216HW,2013-01-12 05:22:00,
2013-01-11 21:27:00,39.1,34.0,30.15,SE,135,0.0,0.0,82,0.00,,,0.00,WUHU216HW,2013-01-12 05:27:00,
2013-01-11 21:32:00,39.1,34.4,30.15,SSE,158,0.0,0.0,83,0.00,,,0.00,WUHU216HW,2013-01-12 05:32:00,
2013-01-11 21:37:00,39.1,34.7,30.15,SE,135,0.0,0.0,84,0.00,,,0.00,WUHU216HW,2013-01-12 05:37:00,
2013-01-11 21:42:00,39.1,34.7,30.15,South,180,0.0,0.0,84,0.00,,,0.00,WUHU216HW,2013-01-12 05:42:00,
2013-01-11 21:47:00,39.2,34.8,30.15,North,0,0.0,0.0,84,0.00,,,0.00,WUHU216HW,2013-01-12 05:47:00,
2013-01-11 21:52:00,39.1,34.7,30.15,NE,45,0.2,0.4,84,0.00,,,0.00,WUHU216HW,2013-01-12 05:52:00,
2013-01-11 21:57:00,38.7,34.3,30.15,North,0,0.0,0.4,84,0.00,,,0.00,WUHU216HW,2013-01-12 05:57:00,
2013-01-11 22:02:00,38.7,34.6,30.15,NNW,338,0.0,0.2,85,0.00,,,0.00,WUHU216HW,2013-01-12 06:02:00,
2013-01-11 22:07:00,38.5,34.7,30.16,North,0,0.0,0.4,86,0.00,,,0.00,WUHU216HW,2013-01-12 06:07:00,
2013-01-11 22:12:00,38.2,34.0,30.16,WNW,293,0.4,0.4,85,0.00,,,0.00,WUHU216HW,2013-01-12 06:12:00,
2013-01-11 22:17:00,38.2,34.0,30.16,West,270,0.0,0.7,85,0.00,,,0.00,WUHU216HW,2013-01-12 06:17:00,
2013-01-11 22:22:00,38.2,33.8,30.16,WSW,248,0.0,0.7,84,0.00,,,0.00,WUHU216HW,2013-01-12 06:22:00,
2013-01-11 22:27:00,38.3,33.9,30.17,West,270,0.0,0.7,84,0.00,,,0.00,WUHU216HW,2013-01-12 06:27:00,
2013-01-11 22:32:00,38.3,33.9,30.16,West,270,0.7,0.7,84,0.00,,,0.00,WUHU216HW,2013-01-12 06:32:00,
2013-01-11 22:37:00,38.2,34.0,30.17,NW,315,0.0,1.6,85,0.00,,,0.00,WUHU216HW,2013-01-12 06:37:00,
2013-01-11 22:42:00,38.0,33.6,30.16,NW,315,0.0,1.6,84,0.00,,,0.00,WUHU216HW,2013-01-12 06:42:00,
2013-01-11 22:47:00,38.0,34.1,30.17,NNE,23,0.0,0.7,86,0.00,,,0.00,WUHU216HW,2013-01-12 06:47:00,
2013-01-11 22:52:00,37.8,33.7,30.17,ESE,113,0.0,0.7,85,0.00,,,0.00,WUHU216HW,2013-01-12 06:52:00,
2013-01-11 22:57:00,37.6,33.5,30.17,SE,135,0.0,0.0,85,0.00,,,0.00,WUHU216HW,2013-01-12 06:57:00,
2013-01-11 23:02:00,37.8,33.7,30.17,SW,225,0.0,0.0,85,0.00,,,0.00,WUHU216HW,2013-01-12 07:02:00,
2013-01-11 23:07:00,37.8,33.7,30.17,WSW,248,0.0,0.0,85,0.00,,,0.00,WUHU216HW,2013-01-12 07:07:00,
2013-01-11 23:12:00,37.4,33.3,30.17,SSW,203,0.0,0.0,85,0.00,,,0.00,WUHU216HW,2013-01-12 07:12:00,
2013-01-11 23:17:00,37.3,33.1,30.17,SW,225,0.0,0.0,85,0.00,,,0.00,WUHU216HW,2013-01-12 07:17:00,
2013-01-11 23:22:00,37.1,32.9,30.17,NW,315,0.2,0.2,85,0.00,,,0.00,WUHU216HW,2013-01-12 07:22:00,
2013-01-11 23:27:00,36.7,32.9,30.17,ENE,68,0.2,0.7,86,0.00,,,0.00,WUHU216HW,2013-01-12 07:27:00,
2013-01-11 23:32:00,36.4,32.5,30.17,SE,135,0.0,0.7,86,0.00,,,0.00,WUHU216HW,2013-01-12 07:32:00,
2013-01-11 23:37:00,36.0,32.1,30.16,SE,135,0.0,0.0,86,0.00,,,0.00,WUHU216HW,2013-01-12 07:37:00,
2013-01-11 23:42:00,35.8,32.0,30.16,NNW,338,0.0,0.4,86,0.00,,,0.00,WUHU216HW,2013-01-12 07:42:00,
2013-01-11 23:47:00,35.3,30.9,30.17,NNW,338,0.0,0.4,84,0.00,,,0.00,WUHU216HW,2013-01-12 07:47:00,
2013-01-11 23:52:00,34.9,30.8,30.16,NNW,338,0.0,0.2,85,0.00,,,0.00,WUHU216HW,2013-01-12 07:52:00,
2013-01-11 23:57:00,34.7,30.6,30.16,ESE,113,0.0,0.0,85,0.00,,,0.00,WUHU216HW,2013-01-12 07:57:00,